Miscellaneous Local Product
Issued by NWS Hastings, NE

Home | Current Version | Previous Version | Text Only | Print | Product List | Glossary Off
Versions: 1 2 3 4 5 6 7 8 9 10 11 12 13 14 15 16 17 18 19 20 21 22 23 24 25 26 27 28 29 30 31 32 33 34 35 36 37 38 39 40 41 42 43 44 45 46 47 48 49 50

000
AXUS43 KGID 291602
MISGRI

GID CWA HOURLY WEATHER ROUNDUP
NATIONAL WEATHER SERVICE HASTINGS NE
1100 AM CDT MON MAY 29 2017

NOTE: "FAIR" INDICATES FEW OR NO CLOUDS BELOW 12,000 FEET WITH NO
SIGNIFICANT WEATHER AND/OR OBSTRUCTIONS TO VISIBILITY.

...SOUTH CENTRAL NEBRASKA...

CITY           SKY/WX    TMP DP  RH WIND       PRES   REMARKS
GRAND ISLAND   SUNNY     69  47  45 NW13      30.09R
HASTINGS       SUNNY     69  47  45 N12       30.09R
KEARNEY        SUNNY     68  43  40 N10       30.11R
ORD            SUNNY     66  37  34 N16G24    30.08S
YORK           SUNNY     68  45  42 N10       30.06R
AURORA         SUNNY     69  44  41 N12G18    30.07S
LEXINGTON      SUNNY     68  46  44 NW7       30.12S
HOLDREGE       SUNNY     66  47  50 N7        30.11S
HEBRON         SUNNY     72  48  42 NW5       30.05S

...NEBRASKA PANHANDLE...

CITY           SKY/WX    TMP DP  RH WIND       PRES   REMARKS
CHADRON        SUNNY     61  47  59 CALM      30.17F
ALLIANCE       MOSUNNY   64  40  41 NW12      30.18S
SCOTTSBLUFF    SUNNY     66  42  41 W10       30.20F
SIDNEY         SUNNY     64  43  46 NW13      30.22S

...WESTERN AND NORTH CENTRAL NEBRASKA...

CITY           SKY/WX    TMP DP  RH WIND       PRES   REMARKS
VALENTINE      SUNNY     62  39  42 NW15G22   30.13S
AINSWORTH      SUNNY     61  41  47 N17G25    30.13S
ONEILL         SUNNY     64  37  37 NW20G26   30.10R
BROKEN BOW     SUNNY     67  40  37 N17       30.11S
IMPERIAL       SUNNY     68  45  43 NW8       30.18R
NORTH PLATTE   SUNNY     67  48  50 NW7       30.14S
MCCOOK         SUNNY     72  47  40 N13       30.13F

...EASTERN NEBRASKA...

CITY           SKY/WX    TMP DP  RH WIND       PRES   REMARKS
NORFOLK        SUNNY     65  42  43 NW16G24   30.04S
SO SIOUX CITY  SUNNY     66  46  48 NW20G29   29.99S
TEKAMAH        SUNNY     71  44  37 NW17G23   30.00R
ALBION         SUNNY     66  43  42 NW17G23   30.06F
OMAHA EPPLEY   MOSUNNY   72  46  39 NW16      29.99S
OFFUTT AFB     SUNNY     71  49  46 W8        29.99S
MILLARD        SUNNY     71  51  49 NW8       30.01R
LINCOLN        SUNNY     73  45  36 NW10      30.03R
NEBRASKA CITY  SUNNY     73  40  30 NW6       30.01R
BEATRICE       SUNNY     72  50  46 W6        30.03R
FALLS CITY     SUNNY     73  50  44 VRB3      30.00S

...NORTHERN KANSAS...

CITY           SKY/WX    TMP DP  RH WIND       PRES   REMARKS
GOODLAND       MOSUNNY   64  47  53 NW14      30.18F
HILL CITY      SUNNY     71  51  49 N13       30.13R
NORTON         SUNNY     68  46  45 NW8       30.13S
PHILLIPSBURG   SUNNY     70  48  46 N7        30.11R
SMITH CENTER   SUNNY     66  50  55 NW7       30.10R
HAYS           SUNNY     71  52  50 NW10      30.12S
RUSSELL        SUNNY     70  52  52 N7        30.09R
CONCORDIA      SUNNY     70  55  59 NW7       30.06R
SALINA         SUNNY     75  53  46 N13       30.06S
TOPEKA         SUNNY     74  56  53 NW7       30.02R



USA.gov is the U.S. government's official web portal to all federal, state and local government web resources and services.